Elizabethtown, NC

10:39 PM EDT on September 20, 2017 (GMT -0400)
Elizabethtown

Weather History for KEYF - January, 2013

Change the Weather History Date:

Wednesday, January 2, 2013

  Actual Average (KILM) Record (KILM)
Temperature  
Mean Temperature 47 °F -  
Max Temperature 52 °F 56 °F 80 °F (1985)
Min Temperature 42 °F 36 °F 14 °F (1928)
Degree Days  
Heating Degree Days 18    
Moisture  
Dew Point 47 °F    
Average Humidity 93    
Maximum Humidity 100    
Minimum Humidity 80    
Precipitation  
Precipitation 0.24 in - - ()
Sea Level Pressure  
Sea Level Pressure 30.04 in    
Wind  
Wind Speed 2 mph (NNE)    
Max Wind Speed 7 mph    
Max Gust Speed -    
Visibility 7 miles    
Events Rain    
Averages and records for this station are not official NWS values.
T = Trace of Precipitation, MM = Missing Value Source: NWS Daily Summary

Daily Weather History Graph

Daily Weather History Graph

Search for Another Location

Airport or City:

Trip Planner

Search our weather history database for the weather conditions in past years. The results will help you decide how hot, cold, wet, or windy it might be!

Date:

Astronomy

Jan. 02, 2013 Rise Set
Actual Time 7:20 AM EST 5:14 PM EST
Civil Twilight 6:52 AM EST 5:42 PM EST
Nautical Twilight 6:21 AM EST 6:14 PM EST
Astronomical Twilight 5:50 AM EST 6:44 PM EST
Moon 10:30 PM EST (1/2) 10:14 AM EST (1/2)
Length of Visible Light 10h 49m
Length of Day
9h 54m
Waning Gibbous, 75% of the Moon is Illuminated
Jan 2
Waning Gibbous
Jan 4
Last Quarter
Jan 11
New
Jan 18
First Quarter
Jan 26
Full

Hourly Weather History & Observations

Time (EST) Temp. Windchill Dew Point Humidity Pressure Visibility Wind Dir Wind Speed Gust Speed Precip Events Conditions
12:15 AM 52.2 °F - 52.2 °F 100% 29.94 in 1.0 mi Calm Calm - N/A   Overcast
12:35 AM 52.2 °F - 52.2 °F 100% 29.93 in 1.8 mi Calm Calm - N/A   Overcast
12:55 AM 52.3 °F - 52.3 °F 100% 29.93 in 1.8 mi Calm Calm - N/A   Overcast
1:15 AM 52.3 °F - 52.3 °F 100% 29.93 in 1.5 mi Calm Calm - N/A   Overcast
1:35 AM 52.3 °F - 52.3 °F 100% 29.92 in 1.5 mi Calm Calm - N/A   Overcast
1:55 AM 52.2 °F - 52.2 °F 100% 29.92 in 1.0 mi Calm Calm - N/A   Overcast
2:15 AM 52.2 °F - 52.2 °F 100% 29.92 in 0.8 mi Calm Calm - 0.01 in   Heavy Drizzle
2:35 AM 52.2 °F - 52.2 °F 100% 29.92 in 0.8 mi Calm Calm - 0.02 in   Drizzle
2:55 AM 52.2 °F - 52.2 °F 100% 29.93 in 1.5 mi Calm Calm - 0.05 in Rain Heavy Rain
3:35 AM 52.2 °F - 52.2 °F 100% 29.92 in 2.5 mi Calm Calm - 0.03 in Rain Heavy Rain
3:55 AM 52.2 °F - 52.2 °F 100% 29.91 in 2.5 mi Calm Calm - 0.07 in Rain Rain
4:15 AM 52.2 °F - 52.2 °F 100% 29.93 in 3.0 mi Calm Calm - 0.02 in Rain Heavy Rain
4:35 AM 52.2 °F - 52.2 °F 100% 29.93 in 4.0 mi Calm Calm - 0.04 in Rain Heavy Rain
4:55 AM 52.2 °F - 52.2 °F 100% 29.93 in 4.0 mi Calm Calm - 0.05 in   Drizzle
5:15 AM 52.2 °F - 52.2 °F 100% 29.91 in 5.0 mi East 3.5 mph - N/A   Light Drizzle
5:35 AM 52.2 °F - 52.2 °F 100% 29.89 in 7.0 mi Calm Calm - N/A   Overcast
5:55 AM 52.2 °F - 52.2 °F 100% 29.93 in 7.0 mi NNW 3.5 mph - N/A Rain Light Rain
6:15 AM 52.2 °F - 52.2 °F 100% 29.93 in 7.0 mi Calm Calm - 0.01 in Rain Light Rain
6:35 AM 52.2 °F - 52.2 °F 100% 29.93 in 7.0 mi Calm Calm - 0.01 in   Drizzle
7:15 AM 52.2 °F - 52.2 °F 100% 29.96 in 4.0 mi North 3.5 mph - 0.02 in Rain Heavy Rain
7:35 AM 52.2 °F - 52.2 °F 100% 29.97 in 4.0 mi North 3.5 mph - 0.03 in   Heavy Drizzle
7:55 AM 52.0 °F - 52.0 °F 100% 29.98 in 4.0 mi North 5.8 mph - 0.03 in   Drizzle
8:15 AM 51.4 °F - 51.4 °F 100% 29.99 in 3.0 mi North 5.8 mph - N/A   Heavy Drizzle
8:35 AM 50.7 °F - 50.7 °F 100% 30.01 in 3.0 mi North 6.9 mph - 0.02 in   Heavy Drizzle
8:55 AM 49.3 °F - 49.3 °F 100% 30.02 in 3.0 mi North 5.8 mph - 0.03 in   Heavy Drizzle
9:15 AM 48.6 °F - 48.6 °F 100% 30.02 in 7.0 mi North 6.9 mph - N/A   Overcast
9:35 AM 48.6 °F - 48.6 °F 100% 30.04 in 10.0 mi NNE 5.8 mph - N/A   Overcast
10:15 AM 48.6 °F - 48.6 °F 100% 30.05 in 10.0 mi NNE 4.6 mph - N/A Rain Light Rain
10:35 AM 48.7 °F - 48.7 °F 100% 30.06 in 10.0 mi North 3.5 mph - N/A   Overcast
10:55 AM 48.9 °F - 48.4 °F 98% 30.06 in 7.0 mi NNE 3.5 mph - N/A   Drizzle
11:15 AM 49.1 °F - 48.6 °F 98% 30.05 in 10.0 mi Calm Calm - N/A   Overcast
11:35 AM 50.2 °F - 48.9 °F 95% 30.05 in 10.0 mi ENE 3.5 mph - N/A   Overcast
11:55 AM 50.7 °F - 48.2 °F 91% 30.03 in 10.0 mi NNE 4.6 mph - N/A   Overcast
12:15 PM 52.2 °F - 48.6 °F 88% 30.04 in 10.0 mi NNE 3.5 mph - N/A   Overcast
12:35 PM 52.2 °F - 48.2 °F 86% 30.04 in 10.0 mi NNE 4.6 mph - N/A   Overcast
12:55 PM 52.5 °F - 47.5 °F 83% 30.04 in 10.0 mi NNE 3.5 mph - N/A   Overcast
1:15 PM 52.0 °F - 46.2 °F 81% 30.03 in 10.0 mi North 3.5 mph - N/A   Overcast
1:35 PM 52.2 °F - 46.2 °F 80% 30.04 in 10.0 mi North 3.5 mph - N/A   Overcast
1:55 PM 50.4 °F - 45.1 °F 82% 30.04 in 10.0 mi NNE 3.5 mph - N/A   Overcast
2:15 PM 50.4 °F - 45.0 °F 82% 30.04 in 10.0 mi Calm Calm - N/A   Overcast
2:35 PM 50.4 °F - 45.1 °F 82% 30.04 in 10.0 mi NE 4.6 mph - N/A   Overcast
2:55 PM 50.0 °F - 44.8 °F 82% 30.05 in 10.0 mi Calm Calm - N/A   Overcast
3:15 PM 49.5 °F - 44.8 °F 84% 30.06 in 10.0 mi NNE 3.5 mph - N/A   Overcast
3:35 PM 49.1 °F - 44.2 °F 83% 30.07 in 10.0 mi NNE 3.5 mph - N/A   Overcast
3:55 PM 48.7 °F - 44.4 °F 85% 30.08 in 10.0 mi Calm Calm - N/A   Overcast
4:15 PM 48.7 °F - 44.6 °F 86% 30.08 in 10.0 mi Calm Calm - N/A   Overcast
4:35 PM 47.8 °F - 44.2 °F 87% 30.09 in 10.0 mi NE 3.5 mph - N/A   Overcast
4:55 PM 46.9 °F - 44.2 °F 90% 30.10 in 10.0 mi NNE 3.5 mph - N/A   Overcast
5:15 PM 46.9 °F - 44.2 °F 90% 30.11 in 10.0 mi NNE 3.5 mph - N/A   Overcast
5:35 PM 46.9 °F - 44.2 °F 90% 30.11 in 10.0 mi Calm Calm - N/A   Overcast
5:55 PM 46.6 °F - 44.1 °F 91% 30.11 in 10.0 mi Calm Calm - N/A   Overcast
6:15 PM 46.0 °F 44.8 °F 43.3 °F 90% 30.13 in 10.0 mi NNE 3.5 mph - N/A   Overcast
6:35 PM 46.0 °F 44.8 °F 42.4 °F 87% 30.14 in 10.0 mi NNE 3.5 mph - N/A   Overcast
6:55 PM 45.5 °F - 42.1 °F 88% 30.14 in 10.0 mi Calm Calm - N/A   Overcast
7:15 PM 45.5 °F - 41.9 °F 87% 30.15 in 10.0 mi Calm Calm - N/A   Overcast
7:35 PM 45.1 °F - 41.0 °F 85% 30.15 in 10.0 mi Calm Calm - N/A   Overcast
7:55 PM 44.6 °F - 41.0 °F 87% 30.15 in 10.0 mi Calm Calm - N/A   Overcast
8:15 PM 44.2 °F 42.7 °F 40.3 °F 86% 30.17 in 10.0 mi ENE 3.5 mph - N/A   Overcast
8:35 PM 44.1 °F 42.5 °F 40.1 °F 86% 30.16 in 10.0 mi ENE 3.5 mph - N/A   Overcast
8:55 PM 43.9 °F - 40.1 °F 87% 30.16 in 10.0 mi Calm Calm - N/A   Overcast
9:15 PM 43.9 °F - 40.3 °F 87% 30.16 in 10.0 mi Calm Calm - N/A   Overcast
9:35 PM 43.7 °F 42.1 °F 40.6 °F 89% 30.17 in 10.0 mi NE 3.5 mph - N/A   Overcast
9:55 PM 43.5 °F - 40.5 °F 89% 30.17 in 7.0 mi Calm Calm - N/A   Overcast
10:15 PM 43.3 °F - 40.1 °F 88% 30.18 in 10.0 mi Calm Calm - N/A   Overcast
10:35 PM 43.0 °F 40.3 °F 39.7 °F 88% 30.17 in 10.0 mi ENE 4.6 mph - N/A   Overcast
11:15 PM 42.8 °F - 39.2 °F 87% 30.21 in 7.0 mi Calm Calm - N/A   Mostly Cloudy
11:35 PM 42.4 °F 40.7 °F 39.2 °F 88% 30.18 in 7.0 mi ESE 3.5 mph - N/A   Scattered Clouds
11:55 PM 42.4 °F - 39.6 °F 90% 30.19 in 7.0 mi Calm Calm - N/A   Clear